Showing default

GLOBALSTAR M072, 31574

Orbit data source: Space-Track

GLOBALSTAR M072, 31574 is a payload satellite owned by Globalstar (US) in LEO that was launched on Tue, 29 May 2007 UTC via a SOYUZ-FG launch vehicle from the Tyuratam Missile And Space Complex (TTMTR). Payload-class satellites include a variety of spacecraft equipped with specific instruments for various scientific and technological missions. These include communications satellites like Starlink; space stations such as the ISS; scientific satellites like the Hubble; Earth observation satellites from companies like Planet Labs, Umbra, and HawkEye 360; GPS; miniature CubeSats for education and research; and military/defense satellites.

Loading next visibility...
Identifier
31574, 2007-020D
Orbit
LEO
Last TLE update
8 hours ago
Origin
Manufacturer
SS/Loral
Mission
Operational Commercial Communications
Bus & Motor
LS-400, LS-400 AOCS
Mass
450 kg wet, 380 kg dry
Launch date (UTC)
2007-05-29 (18 years ago)
Launch vehicle
SOYUZ-FG
Launch site
Tyuratam Missile And Space Complex (TTMTR)
Object type
Payload
Rocket body
Debris
Shape & HBR
Box + 2 Pan, 12 m
Radar Cross Section
5.587 m², Large (>1 m²)

Expand to show TLE details & history

TLE from 8 hours ago
0 GLOBALSTAR M072
1 31574U 07020D   25129.36332892 -.00000079  00000-0  64538-4 0  9991
2 31574  51.9917  95.3246 0000858 264.4914 253.8826 11.91649143827172
Epoch: 2025-05-09T08:43Z
Definitive object data (Epoch: 2025-05-09T08:43:11.618Z)
Latitude
16.91133°
Longitude
-96.57314°
Altitude
1,718.721 km
Speed
7.02 km/s
True Right ascension
17h 26m 34s
True Declination
16° 49' 38"
Sunlit
Object was in full shadow at TLE epoch
Visualization TLE readout
Latitude
45.69446°
Longitude
-136.59371°
Altitude
1,723.918 km
Speed
7.02 km/s
Apparent Right ascension
13h 49m 01s
Apparent Declination
9° 30' 11"
Sunlit
Object is in daylight
Visualization observer readout
Local Sidereal Time
00:42:16
Azimuth
338.874° N
Elevation
-38.219°
Doppler factor
1
Orbital elements
Apogee altitude
1,719.541 km
Perigee altitude
1,718.151 km
Semi-major axis
8,096.983 km
Eccentricity
0.0000858
Inclination
51.9917°
RAAN
95.3246°
Arg. of periapsis
264.4914°
True anomaly
253.87315°
Mean anomaly
253.8826°
Eccentric anomaly
253.87788°
Mean motion
2.97892 °/min
BSTAR
0.000064538
Orbital period
120.85 mins
Loading maneuver chart data...
Loading SW <> Apogee altitude chart data...
Loading historical data...
Loading historical data...
Loading historical data...
Loading historical data...
Loading historical data...
Loading historical data...
Loading historical data...

GLOBALSTAR M072 Visibility forecast

Observer location: undefined°, undefined°

Span
Click to sort rows by Start time (UTC) header in descending order
Start Az.
Max El. time (UTC)
Max El. Az.
Max El.
End time (UTC)
End Az.
11 mins2025-05-09 22:01:47.290Z153.738° SSE2025-05-09 22:07:47.290Z114.556° SE18.176°2025-05-09 22:12:47.290Z82.511° E
18 mins2025-05-10 00:04:47.290Z215.571° SW2025-05-10 00:12:47.290Z146.659° SSE43.485°2025-05-10 00:22:47.290Z54.896° ENE
17 mins2025-05-10 02:12:47.290Z267.686° W2025-05-10 02:20:47.290Z338.585° N38.492°2025-05-10 02:29:47.290Z52.623° ENE
17 mins2025-05-10 04:21:47.290Z300.281° NW2025-05-10 04:29:47.290Z1.888° NNE34.24°2025-05-10 04:38:47.290Z73.661° E
19 mins2025-05-10 06:29:47.290Z308.905° NW2025-05-10 06:38:47.290Z28.11° NE43.543°2025-05-10 06:48:47.290Z116.722° SE
17 mins2025-05-10 08:37:47.290Z295.174° NW2025-05-10 08:45:47.290Z231.482° WSW33.979°2025-05-10 08:54:47.290Z167.217° S
|